Location: Shepherdstown, WV
(39.4326°N, 77.8042°W)
Time: 08:02:01
(UTC-04:00)

Altair - All Passes

Search period start: 04 August 2021 00:00
Search period end: 14 August 2021 00:00
Orbit: 1502 x 1682 km, 47.2° (Epoch: 03 August)

Date Brightness Start Highest point End Pass type
(mag) Time Alt. Az. Time Alt. Az. Time Alt. Az.
04 Aug - 00:32:11 10° SSW 00:41:07 44° SE 00:49:44 10° ENE visible
04 Aug - 02:35:54 10° WSW 02:45:27 77° NNW 02:54:44 10° ENE visible
04 Aug - 04:42:01 10° WNW 04:51:07 53° N 05:00:04 10° ENE visible
04 Aug - 06:47:36 10° WNW 06:56:51 72° NNE 07:06:03 10° ESE daylight
04 Aug - 08:52:37 10° WNW 09:01:16 48° SW 09:09:58 10° SSE daylight
04 Aug - 11:03:44 10° WSW 11:04:14 10° WSW 11:04:45 10° SW daylight
05 Aug - 00:07:14 10° SSW 00:16:00 40° SE 00:24:29 10° ENE visible
05 Aug - 02:10:39 10° WSW 02:20:15 81° NNW 02:29:33 10° ENE visible
05 Aug - 04:16:42 10° W 04:25:51 53° N 04:34:48 10° ENE visible
05 Aug - 06:22:24 10° WNW 06:31:38 69° NNE 06:40:48 10° ESE daylight
05 Aug - 08:27:23 10° WNW 08:36:10 52° SW 08:45:00 10° SSE daylight
05 Aug - 10:36:12 10° WSW 10:39:13 12° WSW 10:42:15 10° SW daylight
05 Aug - 23:42:20 10° SSW 23:50:55 37° SE 23:59:13 10° ENE visible
06 Aug - 01:45:25 10° WSW 01:55:03 85° NNW 02:04:23 10° ENE visible
06 Aug - 03:51:25 10° W 04:00:35 54° N 04:09:34 10° ENE visible
06 Aug - 05:57:11 10° WNW 06:06:26 66° NNE 06:15:33 10° ESE daylight
06 Aug - 08:02:10 10° WNW 08:11:04 56° SW 08:19:58 10° SE daylight
06 Aug - 10:10:04 10° W 10:14:12 14° WSW 10:18:23 10° SSW daylight
06 Aug - 23:17:27 10° SSW 23:25:49 34° SE 23:33:56 10° ENE visible
07 Aug - 01:20:11 10° WSW 01:29:52 89° NNW 01:39:13 10° ENE visible
07 Aug - 03:26:06 10° W 03:35:19 55° N 03:44:19 10° ENE visible
07 Aug - 05:31:58 10° WNW 05:41:12 64° NNE 05:50:18 10° E visible
07 Aug - 07:36:58 10° WNW 07:45:57 61° SW 07:54:56 10° SE daylight
07 Aug - 09:44:13 10° W 09:49:11 16° SW 09:54:12 10° SSW daylight
07 Aug - 22:52:36 10° S 23:00:44 31° SE 23:08:37 10° ENE visible
08 Aug - 00:54:58 10° SW 01:04:41 87° SSE 01:14:03 10° ENE visible
08 Aug - 03:00:46 10° W 03:10:04 55° N 03:19:05 10° ENE visible
08 Aug - 05:06:44 10° WNW 05:15:59 62° NNE 05:25:03 10° E visible
08 Aug - 07:11:45 10° WNW 07:20:50 66° SW 07:29:53 10° SE daylight
08 Aug - 09:18:32 10° W 09:24:10 18° SW 09:29:49 10° SSW daylight
08 Aug - 22:27:49 10° S 22:35:39 28° SE 22:43:15 10° ENE visible
09 Aug - 00:29:46 10° SW 00:39:30 82° SSE 00:48:53 10° ENE visible
09 Aug - 02:35:27 10° W 02:44:48 57° N 02:53:52 10° ENE visible
09 Aug - 04:41:30 10° WNW 04:50:44 60° NNE 04:59:47 10° E visible
09 Aug - 06:46:33 10° WNW 06:55:43 70° SW 07:04:48 10° SE daylight
09 Aug - 08:52:58 10° W 08:59:08 20° SW 09:05:20 10° S daylight
09 Aug - 22:03:04 10° S 22:10:34 25° SE 22:17:52 10° ENE visible
10 Aug - 00:04:35 10° SW 00:14:19 78° SE 00:23:43 10° ENE visible
10 Aug - 02:10:08 10° W 02:19:32 58° NNW 02:28:39 10° ENE visible
10 Aug - 04:16:15 10° WNW 04:25:30 58° NNE 04:34:31 10° E visible
10 Aug - 06:21:21 10° WNW 06:30:35 75° SW 06:39:42 10° SE daylight
10 Aug - 08:27:28 10° W 08:34:06 23° SW 08:40:45 10° S daylight
10 Aug - 21:38:23 10° S 21:45:30 23° SE 21:52:26 10° E visible
10 Aug - 23:39:26 10° SW 23:49:10 73° SE 23:58:33 10° ENE visible
11 Aug - 01:44:48 10° W 01:54:17 60° NNW 02:03:27 10° ENE visible
11 Aug - 03:51:00 10° WNW 04:00:14 57° N 04:09:15 10° E visible
11 Aug - 05:56:09 10° WNW 06:05:26 80° SW 06:14:35 10° SE daylight
11 Aug - 08:02:02 10° WNW 08:09:03 25° SW 08:16:06 10° S daylight
11 Aug - 21:13:46 10° S 21:20:26 21° SE 21:26:57 10° E visible
11 Aug - 23:14:17 10° SW 23:24:00 69° SE 23:33:22 10° ENE visible
12 Aug - 01:19:29 10° W 01:29:01 61° NNW 01:38:15 10° ENE visible
12 Aug - 03:25:43 10° WNW 03:34:59 56° N 03:43:59 10° E visible
12 Aug - 05:30:57 10° WNW 05:40:17 85° SSW 05:49:27 10° SE visible
12 Aug - 07:36:38 10° WNW 07:44:01 28° SW 07:51:24 10° S daylight
12 Aug - 20:49:16 10° SSE 20:55:22 18° SE 21:01:21 10° E visible
12 Aug - 22:49:10 10° SW 22:58:51 64° SE 23:08:11 10° ENE visible
13 Aug - 00:54:09 10° W 01:03:46 64° NNW 01:13:03 10° ENE visible
13 Aug - 03:00:26 10° WNW 03:09:43 55° N 03:18:43 10° E visible
13 Aug - 05:05:45 10° WNW 05:15:07 89° SSW 05:24:18 10° ESE visible
13 Aug - 07:11:16 10° WNW 07:18:58 31° SW 07:26:38 10° S daylight
13 Aug - 20:24:51 10° SSE 20:30:19 16° SE 20:35:41 10° E visible
13 Aug - 22:24:04 10° SW 22:33:42 60° SE 22:42:59 10° ENE visible
